Location: Observatoires du Mont Megantic
(45.4500°N, 71.1500°W)
Time: 00:19:14
(UTC-05:00)

N. Korean satellite - Visible Passes

Search period start: 16 December 2017 00:00
Search period end: 26 December 2017 00:00
Orbit: 461 x 513 km, 97.2° (Epoch: 15 December)

Date Brightness Start Highest point End Pass type
(mag) Time Alt. Az. Time Alt. Az. Time Alt. Az.
16 Dec 6.8 06:32:38 10° NNE 06:36:23 79° ESE 06:40:00 10° S visible
16 Dec 7.0 17:10:45 10° SE 17:14:15 40° ENE 17:17:48 10° N visible
16 Dec 9.8 18:45:41 10° SW 18:47:57 15° W 18:50:15 10° NW visible
17 Dec 8.2 06:09:15 10° NNE 06:12:45 39° E 06:16:10 10° SSE visible
17 Dec 7.8 16:47:51 10° ESE 16:50:50 23° ENE 16:53:49 10° NNE visible
17 Dec 8.8 18:20:59 10° SSW 18:24:12 28° W 18:27:30 10° NW visible
18 Dec 9.4 05:46:12 10° NE 05:49:03 21° E 05:51:51 10° SE visible
18 Dec 7.5 17:56:54 10° S 18:00:33 53° W 18:04:15 10° NNW visible
19 Dec 10.1 05:24:01 10° ENE 05:25:15 11° E 05:26:29 10° ESE visible
19 Dec 6.5 17:33:14 10° SSE 17:36:58 78° ENE 17:40:44 10° N visible
20 Dec 6.8 06:31:52 10° NNE 06:35:34 78° ESE 06:39:10 10° S visible
20 Dec 7.1 17:09:57 10° SE 17:13:28 40° ENE 17:17:00 10° N visible
20 Dec 9.7 18:44:49 10° SW 18:47:09 16° W 18:49:30 10° NW visible
21 Dec 8.2 06:08:29 10° NNE 06:11:56 38° E 06:15:18 10° SSE visible
21 Dec 7.8 16:47:03 10° ESE 16:50:01 23° ENE 16:53:00 10° NNE visible
21 Dec 8.8 18:20:08 10° SSW 18:23:24 28° W 18:26:42 10° NW visible
22 Dec 9.5 05:45:25 10° NE 05:48:13 20° E 05:50:57 10° SE visible
22 Dec 7.4 17:56:04 10° S 17:59:44 54° W 18:03:26 10° NNW visible
23 Dec 10.1 05:23:20 10° ENE 05:24:24 11° E 05:25:27 10° ESE visible
23 Dec 6.5 17:32:24 10° SSE 17:36:08 77° ENE 17:39:55 10° N visible
24 Dec 6.8 06:31:04 10° NNE 06:34:43 76° E 06:38:16 10° S visible
24 Dec 7.1 17:09:06 10° SE 17:12:37 39° ENE 17:16:09 10° N visible
24 Dec 9.7 18:43:56 10° SW 18:46:18 16° W 18:48:40 10° NW visible
25 Dec 8.2 06:07:39 10° NNE 06:11:04 37° E 06:14:23 10° SSE visible
25 Dec 7.9 16:46:14 10° ESE 16:49:11 22° ENE 16:52:08 10° NNE visible
25 Dec 8.8 18:19:16 10° SSW 18:22:33 28° W 18:25:51 10° NW visible
